[[{"header":{"parameterUnit":"m.s-1","parameterCategory":1,"la1":30.2991,"la2":30.254,"lo1":-89.0895,"lo2":-89.0444,"dy":0.0017,"dx":0.0017,"nx":28,"ny":28,"refTime":"2025-07-23T21:00:00:Z","depth":0,"parameterNumber":2,"parameterNumberName":"U-component_of_WINDS"},"data":[0,0,0,0,0,0,0,0,0,0,0,0,0,0,0,0,0,0,0,0,0,0,0,0,0,0,0,0,0,0,0,0,0,0,0,0,0,0,0,0,0,0,0,0,0,0,0,0,0,0,0,0,0,0,0,0,0,0,-2.1606,-2.1607,0,-2.1681,-2.1682,-2.1683,-2.1682,-2.1681,-2.168,-2.1679,-2.1758,-2.1761,-2.1764,0,0,0,0,0,0,0,0,0,0,0,0,0,-2.1466,-2.1468,-2.1606,-2.1607,-2.1608,-2.1681,-2.1682,-2.1683,-2.1682,-2.1681,-2.168,-2.1679,-2.1757,-2.1761,-2.1764,0,0,0,0,0,0,0,0,0,0,0,0,0,-2.1532,-2.1469,-2.1606,-2.1617,-2.1618,-2.168,-2.1682,-2.1683,-2.1682,-2.1681,-2.168,-2.1678,-2.1756,-2.176,-2.1765,-2.1822,0,0,-2.1779,-2.1781,0,0,0,0,0,0,0,0,-2.1528,-2.1537,-2.1614,-2.1616,-2.1618,-2.1671,-2.1661,-2.173,-2.1683,-2.1658,-2.1679,-2.1677,-2.173,-2.1737,-2.1754,-2.1826,-2.183,-2.1779,-2.1782,-2.1784,-2.1785,0,0,0,0,0,0,0,-2.1524,-2.1534,-2.1636,-2.1615,-2.1618,-2.1618,-2.1626,-2.1674,-2.1702,-2.166,-2.166,-2.1669,-2.1731,-2.175,-2.1756,-2.1831,-2.1779,-2.1783,-2.1786,-2.1788,-2.1952,-2.1954,0,0,0,0,0,0,-2.1517,-2.153,-2.1634,-2.1638,-2.1569,-2.1622,-2.1631,-2.1655,-2.1701,-2.1707,-2.167,-2.1669,-2.1743,-2.1751,-2.1759,-2.1828,-2.1784,-2.1788,-2.1791,-2.195,-2.1952,-2.1954,0,0,0,0,0,0,-2.1514,-2.1526,-2.1631,-2.1584,-2.1598,-2.1626,-2.1654,-2.1658,-2.1676,-2.1709,-2.1714,-2.1684,-2.1742,-2.1753,-2.1806,-2.1831,-2.179,-2.1794,-2.1948,-2.1951,-2.1953,-2.1967,0,0,0,0,0,0,-2.151,-2.1525,-2.1547,-2.1585,-2.16,-2.1676,-2.1655,-2.166,-2.1684,-2.1682,-2.1723,-2.1728,-2.1742,-2.1799,-2.1811,-2.1836,-2.1798,-2.1946,-2.195,-2.1952,-2.1965,-2.197,-2.1974,0,0,0,0,0,-2.1505,-2.1549,-2.1548,-2.156,-2.1628,-2.1677,-2.1686,-2.17,-2.1686,-2.1708,-2.1729,-2.1727,-2.1826,-2.1805,-2.1817,-2.1845,-2.1945,-2.1949,-2.1952,-2.1963,-2.1969,-2.1974,0,0,0,0,0,0,-2.1514,-2.1554,-2.1553,-2.1611,-2.1641,-2.1677,-2.1706,-2.1706,-2.1741,-2.1739,-2.1755,-2.1764,-2.1817,-2.1837,-2.1812,-2.1902,-2.1884,-2.189,-2.1887,-2.1894,-2.1898,-2.1892,-2.1802,0,0,0,0,0,-2.1523,-2.1559,-2.1592,-2.164,-2.1654,-2.1677,-2.17,-2.1707,-2.1739,-2.1752,-2.1777,-2.1808,-2.1846,-2.1871,-2.1909,-2.1968,-2.1976,-2.1993,-2.1998,-2.2001,-2.2007,-2.2038,-2.2045,-2.1966,-2.1966,-2.1966,0,0,-2.1541,-2.1567,-2.159,-2.1642,-2.1666,-2.1703,-2.1688,-2.1729,-2.1757,-2.1759,-2.181,-2.1829,-2.1866,-2.1922,-2.1948,-2.194,-2.203,-2.2006,-2.2009,-2.2012,-2.2043,-2.205,-2.2057,-2.1969,-2.1968,-2.1968,0,0,-2.1594,-2.1617,-2.1659,-2.1683,-2.1718,-2.1733,-2.1743,-2.178,-2.1792,-2.1843,-2.1845,-2.1879,-2.1945,-2.197,-2.1992,-2.2052,-2.2052,-2.2064,-2.2089,-2.2119,-2.2126,-2.2131,-2.2152,-2.2159,-2.2069,-2.2069,-2.2069,0,-2.1612,-2.1668,-2.168,-2.172,-2.1743,-2.1745,-2.1787,-2.181,-2.1857,-2.1872,-2.1862,-2.1944,-2.1969,-2.203,-2.2044,-2.2062,-2.2074,-2.2059,-2.2124,-2.2129,-2.2135,-2.2154,-2.2162,-2.207,-2.207,-2.207,-2.207,0,-2.1688,-2.1727,-2.1756,-2.1799,-2.1825,-2.1866,-2.1885,-2.191,-2.1916,-2.1931,-2.1984,-2.2013,-2.2055,-2.2071,-2.2077,-2.2133,-2.2126,-2.212,-2.2102,-2.2143,-2.2162,-2.2169,-2.2072,-2.2072,-2.2071,-2.2071,0,0,-2.1749,-2.1797,-2.1808,-2.1827,-2.1866,-2.1896,-2.1937,-2.1977,-2.1998,-2.203,-2.2064,-2.2119,-2.2113,-2.2137,-2.2146,-2.2173,-2.2217,-2.2163,-2.2164,-2.2171,-2.2279,-2.2283,-2.2291,-2.2217,-2.2219,-2.222,-2.2276,0,-2.1805,-2.1876,-2.1888,-2.195,-2.1986,-2.1988,-2.2023,-2.2051,-2.2067,-2.2099,-2.2118,-2.2155,-2.2145,-2.2159,-2.2186,-2.2206,-2.2239,-2.2203,-2.2249,-2.2251,-2.2239,-2.2301,-2.2306,-2.2357,-2.2283,-2.2284,-2.2285,0,-2.1879,-2.1911,-2.1977,-2.2009,-2.2025,-2.2056,-2.2093,-2.2124,-2.2156,-2.2166,-2.2192,-2.2197,-2.224,-2.222,-2.2279,-2.2253,-2.2274,-2.2286,-2.2289,-2.2293,-2.227,-2.2306,-2.2374,-2.2381,-2.2297,-2.2296,-2.2295,0,-2.1915,-2.1975,-2.2022,-2.2038,-2.2078,-2.2099,-2.2117,-2.2147,-2.217,-2.2203,-2.2218,-2.2256,-2.2276,-2.2305,-2.2321,-2.2305,-2.2378,-2.236,-2.2387,-2.2386,-2.2401,-2.24,-2.2472,-2.2416,-2.2416,-2.2416,-2.2416,0,-2.1976,-2.2016,-2.2038,-2.2067,-2.2111,-2.2124,-2.2168,-2.2186,-2.2212,-2.2244,-2.2249,-2.2279,-2.2298,-2.2331,-2.2344,-2.239,-2.24,-2.2408,-2.2411,-2.2407,-2.2406,-2.242,-2.2416,-2.2418,-2.2417,-2.2417,-2.2417,0,-2.2024,-2.204,-2.2091,-2.2124,-2.2133,-2.2164,-2.2192,-2.222,-2.2235,-2.2276,-2.2286,-2.2311,-2.2349,-2.2368,-2.2417,-2.2425,-2.2477,-2.2478,-2.2465,-2.2466,-2.2492,-2.2489,-2.2574,-2.2586,-2.2523,-2.2524,-2.2524,0,-2.2061,-2.2091,-2.2126,-2.2147,-2.2165,-2.22,-2.2222,-2.2236,-2.226,-2.2297,-2.2321,-2.2359,-2.2391,-2.2453,-2.2475,-2.2513,-2.2514,-2.2541,-2.252,-2.2514,-2.2513,-2.251,-2.2513,-2.2545,-2.2546,-2.2546,-2.2546,0,-2.2124,-2.213,-2.2162,-2.2197,-2.2223,-2.2252,-2.2279,-2.2297,-2.2315,-2.2342,-2.238,-2.2405,-2.2453,-2.2492,-2.253,-2.2549,-2.2551,-2.2553,-2.2561,-2.2557,-2.2548,-2.2552,-2.2475,-2.2551,-2.255,-2.255,-2.255,-2.255,-2.2167,-2.2193,-2.2222,-2.2257,-2.2279,-2.2304,-2.2331,-2.2349,-2.2381,-2.2421,-2.2428,-2.2469,-2.2499,-2.255,-2.257,-2.2603,-2.2596,-2.2608,-2.2611,-2.2614,-2.2614,-2.2543,-2.261,-2.261,-2.261,-2.261,-2.261,0,-2.223,-2.2248,-2.228,-2.2317,-2.2345,-2.2343,-2.2373,-2.2396,-2.2432,-2.2459,-2.2489,-2.2533,-2.257,-2.2595,-2.2632,-2.2653,-2.2655,-2.2662,-2.2661,-2.2665,-2.2619,-2.2607,-2.266,-2.266,-2.266,-2.266,-2.266,-2.266,-2.2266,-2.2309,-2.2319,-2.2373,-2.2391,-2.243,-2.2447,-2.2471,-2.2492,-2.2541,-2.257,-2.2586,-2.2612,-2.2651,-2.2684,-2.269,-2.2703,-2.2711,-2.2717,-2.2673,-2.2668,-2.2663,-2.2652,-2.2714,-2.2714,-2.276,-2.2761,-2.2761]},{"header":{"parameterUnit":"m.s-1","parameterCategory":1,"la1":30.2991,"la2":30.254,"lo1":-89.0895,"lo2":-89.0444,"dy":0.0017,"dx":0.0017,"nx":28,"ny":28,"refTime":"2025-07-23T21:00:00:Z","depth":0,"parameterNumber":3,"parameterNumberName":"V-component_of_WINDS"},"data":[0,0,0,0,0,0,0,0,0,0,0,0,0,0,0,0,0,0,0,0,0,0,0,0,0,0,0,0,0,0,0,0,0,0,0,0,0,0,0,0,0,0,0,0,0,0,0,0,0,0,0,0,0,0,0,0,0,0,3.7243,3.7244,0,3.7372,3.7373,3.7375,3.7362,3.736,3.7358,3.7356,3.7485,3.749,3.7495,0,0,0,0,0,0,0,0,0,0,0,0,0,3.6982,3.6987,3.7243,3.7244,3.7246,3.7371,3.7373,3.7375,3.7363,3.736,3.7358,3.7355,3.7483,3.7489,3.7496,0,0,0,0,0,0,0,0,0,0,0,0,0,3.7101,3.6989,3.7242,3.7255,3.7257,3.7371,3.7373,3.7375,3.7363,3.736,3.7357,3.7354,3.7481,3.7489,3.7497,3.7605,0,0,3.7521,3.7524,0,0,0,0,0,0,0,0,3.7095,3.7111,3.7251,3.7254,3.7257,3.7348,3.7328,3.7452,3.7364,3.7323,3.7356,3.7353,3.7441,3.7452,3.7483,3.7611,3.7617,3.7521,3.7526,3.753,3.7532,0,0,0,0,0,0,0,3.7086,3.7105,3.7294,3.7253,3.7257,3.7253,3.7267,3.7352,3.7397,3.7326,3.7326,3.7341,3.7442,3.7475,3.7486,3.7618,3.7521,3.7528,3.7533,3.7536,3.7841,3.7844,0,0,0,0,0,0,3.7076,3.7099,3.7289,3.7297,3.7167,3.726,3.7275,3.7322,3.7396,3.7405,3.7344,3.734,3.7463,3.7477,3.749,3.7622,3.753,3.7537,3.7541,3.7838,3.7842,3.7845,0,0,0,0,0,0,3.707,3.7093,3.7284,3.7198,3.7222,3.7268,3.732,3.7326,3.7359,3.741,3.7417,3.7369,3.7462,3.7479,3.7577,3.7626,3.7541,3.7548,3.7834,3.7839,3.7843,3.7886,0,0,0,0,0,0,3.7063,3.7091,3.7134,3.7199,3.7227,3.737,3.7323,3.7331,3.7373,3.737,3.7436,3.7444,3.7461,3.7565,3.7585,3.7635,3.7554,3.7829,3.7836,3.7842,3.788,3.7892,3.7901,0,0,0,0,0,3.7053,3.714,3.7136,3.7159,3.7281,3.7373,3.7388,3.7407,3.7377,3.742,3.7452,3.7442,3.7618,3.7575,3.7597,3.7651,3.7826,3.7834,3.7841,3.7875,3.7889,3.7901,0,0,0,0,0,0,3.7078,3.7149,3.7145,3.7255,3.7308,3.737,3.7425,3.7421,3.7483,3.7477,3.7497,3.7512,3.761,3.764,3.7591,3.7759,3.7718,3.773,3.7736,3.775,3.776,3.7751,3.756,0,0,0,0,0,3.7096,3.7166,3.7223,3.7315,3.7342,3.7379,3.7419,3.7429,3.7484,3.7506,3.7546,3.7599,3.7666,3.7709,3.7774,3.7885,3.7898,3.7932,3.7943,3.7952,3.7962,3.8022,3.8037,3.787,3.787,3.787,0,0,3.7135,3.7182,3.7224,3.7321,3.7363,3.7434,3.7398,3.7474,3.7526,3.7517,3.7612,3.7643,3.7703,3.7807,3.7855,3.7835,3.8011,3.7961,3.7968,3.7973,3.8031,3.8047,3.8061,3.7875,3.7874,3.7873,0,0,3.724,3.7284,3.7365,3.7408,3.7472,3.7496,3.7515,3.7578,3.7599,3.7694,3.7689,3.7751,3.7866,3.7909,3.7946,3.8068,3.806,3.8088,3.8144,3.8202,3.8215,3.8227,3.8269,3.8284,3.8098,3.8098,3.8099,0,3.728,3.7387,3.7406,3.7483,3.7525,3.7522,3.7603,3.7644,3.7726,3.7754,3.7732,3.7876,3.7917,3.803,3.806,3.8091,3.8112,3.8081,3.8212,3.8224,3.8235,3.8276,3.8292,3.8101,3.8101,3.8101,3.8101,0,3.7431,3.7505,3.7563,3.7643,3.7692,3.777,3.78,3.7847,3.7853,3.7879,3.7975,3.8024,3.8098,3.8125,3.8131,3.824,3.8226,3.8207,3.8166,3.8253,3.8292,3.8308,3.8106,3.8105,3.8104,3.8103,0,0,3.7556,3.7646,3.7667,3.7703,3.7774,3.7831,3.7909,3.7982,3.8021,3.8078,3.8143,3.8241,3.8224,3.8266,3.8276,3.8327,3.842,3.8302,3.8304,3.8322,3.8541,3.8555,3.8573,3.8415,3.8418,3.8421,3.8536,0,3.7669,3.7808,3.7827,3.795,3.8018,3.8016,3.8083,3.8133,3.816,3.822,3.8249,3.8317,3.829,3.8316,3.8366,3.8398,3.8464,3.839,3.8475,3.8478,3.8459,3.8593,3.8607,3.8714,3.8551,3.8554,3.8556,0,3.7819,3.788,3.801,3.807,3.81,3.816,3.8229,3.8287,3.8343,3.8359,3.8406,3.841,3.8489,3.8445,3.8554,3.8503,3.8539,3.856,3.8564,3.8572,3.8522,3.8604,3.8749,3.8764,3.858,3.8578,3.8576,0,3.7896,3.8011,3.8103,3.8134,3.8208,3.825,3.8282,3.8336,3.8378,3.8438,3.8466,3.8533,3.857,3.8622,3.8644,3.8609,3.8751,3.8709,3.8765,3.8765,3.8795,3.8792,3.8946,3.8819,3.8819,3.8818,3.8818,0,3.8019,3.8098,3.8139,3.8196,3.8284,3.8305,3.8391,3.8422,3.8469,3.8531,3.8533,3.859,3.8616,3.8677,3.8695,3.8782,3.8799,3.8812,3.8816,3.8812,3.881,3.8835,3.8828,3.8823,3.8822,3.8821,3.882,0,3.8121,3.8151,3.8251,3.8313,3.833,3.8392,3.8444,3.8498,3.8524,3.8602,3.8621,3.8661,3.8733,3.876,3.8848,3.886,3.896,3.8958,3.8942,3.8942,3.8997,3.8991,3.9172,3.9197,3.9053,3.9055,3.9056,0,3.8197,3.8258,3.8326,3.8368,3.8402,3.8469,3.8513,3.8536,3.8581,3.8649,3.8695,3.8767,3.8826,3.8941,3.8977,3.9044,3.9043,3.9102,3.9053,3.9047,3.9043,3.9039,3.9045,3.9111,3.9112,3.9113,3.9114,0,3.833,3.8342,3.8405,3.8474,3.8526,3.8581,3.8634,3.8668,3.8698,3.8749,3.8823,3.8869,3.8959,3.903,3.9099,3.9131,3.9128,3.9129,3.9146,3.9142,3.913,3.9137,3.8966,3.9125,3.9124,3.9123,3.9123,3.9122,3.8421,3.8474,3.8531,3.8601,3.8643,3.8693,3.8747,3.8779,3.8842,3.8917,3.8927,3.9006,3.906,3.9152,3.9187,3.9249,3.9233,3.9257,3.9263,3.9268,3.9272,3.9121,3.9261,3.9261,3.9261,3.926,3.926,0,3.8553,3.8589,3.8653,3.8728,3.8783,3.8776,3.8834,3.888,3.8951,3.9002,3.906,3.9144,3.9213,3.9255,3.9324,3.9365,3.9365,3.9382,3.9379,3.9386,3.9282,3.9261,3.9381,3.9381,3.9381,3.9381,3.9381,3.9381,3.8628,3.8718,3.8737,3.8848,3.8883,3.8961,3.8995,3.904,3.9081,3.9176,3.9234,3.926,3.9307,3.9379,3.9442,3.9452,3.9477,3.9496,3.9504,3.9406,3.9394,3.9382,3.9362,3.9501,3.9501,3.9603,3.9604,3.9605]}]]